FW8253 Weather Reports


time (UTC)temp
C
wind
direction
speed
KPH
gust
KPH
rain 1hr
cm
rain 24hr
cm
rain mn
cm
humidity
%
barometer
mb
20260507015556 22 173 0.0 0.0 0.00 0.00 0.00 79 1013.4
20260507015053 22 173 0.0 0.0 0.00 0.00 0.00 79 1013.3
20260507014549 22 173 0.0 0.0 0.00 0.00 0.00 78 1013.2
20260507014045 22 173 0.0 0.0 0.00 0.00 0.00 77 1013.1
20260507013542 22 173 0.0 0.0 0.00 0.00 0.00 77 1012.8
20260507013039 23 173 0.0 0.0 0.00 0.00 0.00 76 1012.8
20260507012536 23 170 0.0 0.0 0.00 0.00 0.00 76 1012.8
20260507012032 23 170 0.0 0.0 0.00 0.00 0.00 76 1012.7
20260507011530 23 170 0.0 0.0 0.00 0.00 0.00 76 1012.8
20260507011026 23 168 0.0 0.0 0.00 0.00 0.00 76 1012.9
20260507010520 23 175 0.0 0.0 0.00 0.00 0.00 74 1013.3
20260507010017 23 174 0.0 0.0 0.00 0.00 0.00 75 1012.7
20260507005515 23 174 0.0 0.0 0.00 0.00 0.00 73 1012.9
20260507005011 23 183 0.0 0.0 0.00 0.00 0.00 75 1012.8
20260507004508 23 183 0.0 0.0 0.00 0.00 0.00 74 1012.9
20260507004006 24 196 0.0 0.0 0.00 0.00 0.00 73 1013.3
20260507003501 24 196 0.0 0.0 0.00 0.00 0.00 73 1013.3
20260507002955 24 196 0.0 0.0 0.00 0.00 0.00 72 1013.5
20260507002453 25 194 0.0 0.0 0.00 0.00 0.00 73 1013.7
20260507001949 25 194 0.0 0.0 0.00 0.00 0.00 73 1013.5
20260507001446 25 193 0.0 0.0 0.00 0.00 0.00 74 1013.3
20260507000943 25 231 0.0 0.0 0.00 0.00 0.00 73 1013.6
20260507000439 25 225 0.0 0.0 0.00 0.00 0.00 72 1013.5
20260506235934 26 225 0.0 0.0 0.00 0.00 0.00 71 1013.6
20260506235432 26 225 0.0 0.0 0.00 0.00 0.00 71 1013.4
20260506234927 26 224 0.0 0.0 0.00 0.00 0.00 70 1013.6
20260506234426 26 225 0.0 0.0 0.00 0.00 0.00 70 1013.6
20260506233923 26 223 0.0 0.0 0.00 0.00 0.00 69 1013.5
20260506233419 27 227 0.0 0.0 0.00 0.00 0.00 68 1013.5
20260506232916 27 200 0.0 0.0 0.00 0.00 0.00 66 1013.1
20260506232412 27 218 0.0 0.0 0.00 0.00 0.00 65 1013.4
20260506231908 27 217 0.0 0.0 0.00 0.00 0.00 65 1013.3
20260506231406 27 216 0.0 0.0 0.00 0.00 0.00 64 1013.4
20260506230903 28 216 0.0 0.0 0.00 0.00 0.00 65 1013.3
20260506230359 27 216 0.0 0.0 0.00 0.00 0.00 66 1013.3
20260506225856 28 216 0.0 0.0 0.00 0.00 0.00 65 1013.2
20260506225353 27 204 0.0 0.0 0.00 0.00 0.00 68 1013.1
20260506224850 28 166 0.0 0.0 0.00 0.00 0.00 65 1013.1
20260506224348 28 216 0.0 0.0 0.00 0.00 0.00 64 1013.0
20260506223843 28 226 0.0 0.0 0.00 0.00 0.00 58 1013.0
20260506223339 28 169 0.0 0.0 0.00 0.00 0.00 61 1012.9
20260506222836 28 231 0.0 0.0 0.00 0.00 0.00 59 1013.3
20260506222331 28 223 0.0 0.0 0.00 0.00 0.00 63 1012.9
20260506221830 28 211 0.0 0.0 0.00 0.00 0.00 64 1013.3
20260506221327 28 225 0.0 0.0 0.00 0.00 0.00 62 1013.2
20260506220825 28 229 0.0 0.0 0.00 0.00 0.00 62 1013.5
20260506220320 29 237 0.0 0.0 0.00 0.00 0.00 59 1013.4
20260506215817 29 245 0.0 0.0 0.00 0.00 0.00 61 1013.6
20260506215312 29 230 0.0 0.0 0.00 0.00 0.00 57 1013.7
20260506214808 29 204 0.0 0.0 0.00 0.00 0.00 58 1013.6
20260506214305 29 202 0.0 0.0 0.00 0.00 0.00 60 1013.6
20260506213804 29 233 0.0 0.0 0.00 0.00 0.00 55 1013.6
20260506213300 29 218 0.0 0.0 0.00 0.00 0.00 57 1013.5
20260506212758 29 221 0.0 0.0 0.00 0.00 0.00 60 1013.3
20260506212253 30 233 0.0 0.0 0.00 0.00 0.00 58 1013.1
20260506211748 30 255 0.0 0.0 0.00 0.00 0.00 55 1013.3
20260506211245 30 13 0.0 0.0 0.00 0.00 0.00 54 1013.6
20260506210742 31 226 0.0 0.0 0.00 0.00 0.00 53 1013.5
20260506210239 31 24 0.0 0.0 0.00 0.00 0.00 49 1013.3
20260506205736 31 211 0.0 0.0 0.00 0.00 0.00 53 1013.8
20260506205232 30 221 0.0 0.0 0.00 0.00 0.00 58 1013.8
20260506204729 30 217 0.0 0.0 0.00 0.00 0.00 58 1013.6
20260506204226 31 128 0.0 0.0 0.00 0.00 0.00 48 1013.6
20260506203724 31 230 0.0 0.0 0.00 0.00 0.00 51 1013.8
20260506203221 31 231 0.0 0.0 0.00 0.00 0.00 52 1013.8
20260506202719 32 166 0.0 0.0 0.00 0.00 0.00 48 1014.0
20260506202215 32 238 0.0 0.0 0.00 0.00 0.00 48 1014.1
20260506201712 32 242 0.0 0.0 0.00 0.00 0.00 46 1014.2
20260506201209 32 169 0.0 0.0 0.00 0.00 0.00 46 1014.3
20260506200705 32 230 0.0 0.0 0.00 0.00 0.00 48 1014.3
20260506200202 32 284 0.0 0.0 0.00 0.00 0.00 46 1014.7
20260506195659 31 217 0.0 0.0 0.00 0.00 0.00 46 1014.5
20260506195155 31 231 0.0 0.0 0.00 0.00 0.00 47 1014.5
20260506194653 31 231 0.0 0.0 0.00 0.00 0.00 49 1014.6
20260506194149 31 245 0.0 0.0 0.00 0.00 0.00 52 1014.8
20260506193647 31 243 0.0 0.0 0.00 0.00 0.00 49 1015.1
20260506193143 31 244 0.0 0.0 0.00 0.00 0.00 50 1015.0
20260506192640 31 224 0.0 0.0 0.00 0.00 0.00 52 1014.9
20260506192136 31 224 0.0 0.0 0.00 0.00 0.00 47 1015.2
20260506191633 31 222 0.0 0.0 0.00 0.00 0.00 49 1015.2
20260506191129 31 313 0.0 0.0 0.00 0.00 0.00 47 1015.2
20260506190627 31 208 0.0 0.0 0.00 0.00 0.00 51 1015.3
20260506190123 30 237 0.0 0.0 0.00 0.00 0.00 52 1015.4
20260506185621 30 227 0.0 0.0 0.00 0.00 0.00 51 1015.3
20260506185117 30 221 0.0 0.0 0.00 0.00 0.00 49 1015.5
20260506184614 30 231 0.0 0.0 0.00 0.00 0.00 51 1015.2
20260506184111 30 225 0.0 0.0 0.00 0.00 0.00 55 1015.4
20260506183608 30 147 0.0 0.0 0.00 0.00 0.00 51 1015.7
20260506183104 30 224 0.0 0.0 0.00 0.00 0.00 54 1015.5
20260506182602 30 234 0.0 0.0 0.00 0.00 0.00 56 1015.6
20260506182058 30 240 0.0 0.0 0.00 0.00 0.00 57 1015.7
20260506181556 30 224 0.0 0.0 0.00 0.00 0.00 55 1016.0
20260506181053 30 187 0.0 0.0 0.00 0.00 0.00 55 1016.0
20260506180550 30 235 0.0 0.0 0.00 0.00 0.00 58 1015.9
20260506180047 30 194 0.0 0.0 0.00 0.00 0.00 57 1016.2
20260506175543 30 246 0.0 0.0 0.00 0.00 0.00 54 1016.5
20260506175039 29 218 0.0 0.0 0.00 0.00 0.00 58 1016.3
20260506174538 28 70 0.0 0.0 0.00 0.00 0.00 60 1016.5
20260506174033 28 210 0.0 0.0 0.00 0.00 0.00 63 1016.4
20260506173532 28 132 0.0 0.0 0.00 0.00 0.00 61 1016.8
20260506173028 28 46 0.0 0.0 0.00 0.00 0.00 58 1016.9
20260506172526 28 140 0.0 0.0 0.00 0.00 0.00 59 1017.0
20260506172022 28 153 0.0 0.0 0.00 0.00 0.00 63 1017.4
20260506171519 27 233 0.0 0.0 0.00 0.00 0.00 66 1017.4
20260506171017 27 165 0.0 0.0 0.00 0.00 0.00 62 1017.5
20260506170514 27 218 0.0 0.0 0.00 0.00 0.00 66 1017.4
20260506170006 27 345 0.0 0.0 0.00 0.00 0.00 66 1017.7
20260506165504 27 212 0.0 0.0 0.00 0.00 0.00 69 1017.7
20260506165000 27 243 0.0 0.0 0.00 0.00 0.00 66 1017.5
20260506164456 27 216 0.0 0.0 0.00 0.00 0.00 67 1017.6
20260506163954 27 222 0.0 0.0 0.00 0.00 0.00 68 1018.0
20260506163449 26 21 0.0 0.0 0.00 0.00 0.00 65 1017.9
20260506162944 26 162 0.0 0.0 0.00 0.00 0.00 67 1018.0
20260506162442 26 333 0.0 0.0 0.00 0.00 0.00 72 1018.2
20260506161934 26 196 0.0 0.0 0.00 0.00 0.00 68 1018.3
20260506161432 26 223 0.0 0.0 0.00 0.00 0.00 74 1018.1
20260506160929 25 215 0.0 0.0 0.00 0.00 0.00 73 1018.1
20260506160426 25 211 0.0 0.0 0.00 0.00 0.00 75 1017.9
20260506155923 24 221 0.0 0.0 0.00 0.00 0.00 77 1018.0
20260506155420 24 235 0.0 0.0 0.00 0.00 0.00 77 1018.1
20260506153542 24 208 0.0 0.0 0.00 0.00 0.00 77 1017.9
20260506153040 24 202 0.0 0.0 0.00 0.00 0.00 77 1017.7
20260506152537 24 205 0.0 0.0 0.00 0.00 0.00 76 1017.7
20260506152035 24 209 0.0 0.0 0.00 0.00 0.00 75 1017.7
20260506151532 25 187 0.0 0.0 0.00 0.00 0.00 75 1017.5
20260506151029 25 216 0.0 0.0 0.00 0.00 0.00 75 1017.5
20260506150526 25 233 0.0 0.0 0.00 0.00 0.00 76 1017.8
20260506150023 25 124 0.0 0.0 0.00 0.00 0.00 75 1017.5
20260506145519 24 211 0.0 0.0 0.00 0.00 0.00 77 1017.7
20260506145017 23 201 0.0 0.0 0.00 0.00 0.00 77 1017.6
20260506144513 23 239 0.0 0.0 0.00 0.00 0.00 79 1017.7
20260506144011 22 244 0.0 0.0 0.00 0.00 0.00 82 1017.9
20260506143508 22 248 0.0 0.0 0.00 0.00 0.00 81 1017.6
20260506143007 22 247 0.0 0.0 0.00 0.00 0.00 81 1017.7
20260506142504 22 247 0.0 0.0 0.00 0.00 0.00 84 1017.8
20260506142002 22 243 0.0 0.0 0.00 0.00 0.00 82 1017.7
20260506141459 21 191 0.0 0.0 0.00 0.00 0.00 83 1017.6
20260506140958 21 190 0.0 0.0 0.00 0.00 0.00 82 1017.8
20260506140454 21 190 0.0 0.0 0.00 0.00 0.00 82 1017.9
20260506135951 21 190 0.0 0.0 0.00 0.00 0.00 84 1017.9
20260506135449 21 190 0.0 0.0 0.00 0.00 0.00 83 1017.9
20260506134944 21 190 0.0 0.0 0.00 0.00 0.00 84 1017.6
20260506134440 20 191 0.0 0.0 0.00 0.00 0.00 84 1017.8
20260506133938 20 193 0.0 0.0 0.00 0.00 0.00 84 1017.7
20260506133435 20 181 0.0 0.0 0.00 0.00 0.00 85 1017.6
20260506132931 20 181 0.0 0.0 0.00 0.00 0.00 84 1017.7
20260506132429 20 179 0.0 0.0 0.00 0.00 0.00 84 1017.7
20260506131926 20 180 0.0 0.0 0.00 0.00 0.00 82 1017.8
20260506131422 19 180 0.0 0.0 0.00 0.00 0.00 84 1017.6
20260506130920 18 183 0.0 0.0 0.00 0.00 0.00 85 1017.8
20260506130416 18 173 0.0 0.0 0.00 0.00 0.00 87 1017.6
20260506125914 18 173 0.0 0.0 0.00 0.00 0.00 88 1017.7
20260506125412 17 174 0.0 0.0 0.00 0.00 0.00 91 1017.6
20260506124910 17 174 0.0 0.0 0.00 0.00 0.00 91 1017.5
20260506124407 17 174 0.0 0.0 0.00 0.00 0.00 92 1017.5
20260506123905 17 174 0.0 0.0 0.00 0.00 0.00 91 1017.3
20260506123403 17 174 0.0 0.0 0.00 0.00 0.00 92 1017.4
20260506122900 17 173 0.0 0.0 0.00 0.00 0.00 93 1017.8
20260506122356 16 173 0.0 0.0 0.00 0.00 0.00 94 1017.4
20260506121855 16 173 0.0 0.0 0.00 0.00 0.00 94 1017.5
20260506121351 16 173 0.0 0.0 0.00 0.00 0.00 94 1017.3
20260506120848 16 173 0.0 0.0 0.00 0.00 0.00 95 1017.3
20260506120346 16 173 0.0 0.0 0.00 0.00 0.00 95 1017.4
20260506115843 16 173 0.0 0.0 0.00 0.00 0.00 96 1017.3
20260506115341 15 173 0.0 0.0 0.00 0.00 0.00 96 1017.2
20260506114839 15 173 0.0 0.0 0.00 0.00 0.00 98 1017.0
20260506114336 15 173 0.0 0.0 0.00 0.00 0.00 98 1017.1
20260506113835 14 173 0.0 0.0 0.00 0.00 0.00 99 1016.6
20260506113332 13 178 0.0 0.0 0.00 0.00 0.00 99 1016.9
20260506112829 13 178 0.0 0.0 0.00 0.00 0.00 99 1016.6
20260506112326 13 178 0.0 0.0 0.00 0.00 0.00 99 1016.8
20260506111823 13 177 0.0 0.0 0.00 0.00 0.00 99 1016.6
20260506111322 13 178 0.0 0.0 0.00 0.00 0.00 99 1016.4
20260506110819 13 178 0.0 0.0 0.00 0.00 0.00 99 1016.4
20260506110315 13 178 0.0 0.0 0.00 0.00 0.00 99 1016.4
20260506105812 13 178 0.0 0.0 0.00 0.00 0.00 99 1016.2
20260506105309 13 178 0.0 0.0 0.00 0.00 0.00 99 1016.2
20260506104806 13 178 0.0 0.0 0.00 0.00 0.00 99 1016.3
20260506104304 13 178 0.0 0.0 0.00 0.00 0.00 99 1016.0
20260506103801 13 178 0.0 0.0 0.00 0.00 0.00 99 1016.0
20260506103259 13 178 0.0 0.0 0.00 0.00 0.00 99 1016.0
20260506102756 13 178 0.0 0.0 0.00 0.00 0.00 99 1016.1
20260506102254 13 178 0.0 0.0 0.00 0.00 0.00 99 1016.0
20260506101751 13 178 0.0 0.0 0.00 0.00 0.00 98 1015.9
20260506101247 13 178 0.0 0.0 0.00 0.00 0.00 98 1015.9
20260506100745 13 178 0.0 0.0 0.00 0.00 0.00 98 1015.8
20260506100243 13 178 0.0 0.0 0.00 0.00 0.00 98 1016.1
20260506095742 13 178 0.0 0.0 0.00 0.00 0.00 98 1015.9
20260506095238 13 178 0.0 0.0 0.00 0.00 0.00 98 1016.0
20260506094734 13 178 0.0 0.0 0.00 0.00 0.00 98 1016.1
20260506094233 13 180 0.0 0.0 0.00 0.00 0.00 98 1016.1
20260506093731 13 182 0.0 0.0 0.00 0.00 0.00 98 1016.2
20260506093228 13 182 0.0 0.0 0.00 0.00 0.00 98 1016.5
20260506092726 13 182 0.0 0.0 0.00 0.00 0.00 98 1016.4
20260506092224 13 182 0.0 0.0 0.00 0.00 0.00 98 1016.3
20260506091721 13 182 0.0 0.0 0.00 0.00 0.00 97 1016.4
20260506091218 13 182 0.0 0.0 0.00 0.00 0.00 97 1016.6
20260506090716 13 182 0.0 0.0 0.00 0.00 0.00 97 1016.5
20260506090212 13 182 0.0 0.0 0.00 0.00 0.00 97 1016.2
20260506085709 13 182 0.0 0.0 0.00 0.00 0.00 97 1016.3
20260506085205 13 182 0.0 0.0 0.00 0.00 0.00 97 1016.6
20260506084703 13 182 0.0 0.0 0.00 0.00 0.00 97 1016.5
20260506084159 13 182 0.0 0.0 0.00 0.00 0.00 97 1016.5
20260506083656 13 182 0.0 0.0 0.00 0.00 0.00 96 1016.6
20260506083154 13 182 0.0 0.0 0.00 0.00 0.00 96 1016.6
20260506082651 13 181 0.0 0.0 0.00 0.00 0.00 96 1016.4
20260506082150 13 181 0.0 0.0 0.00 0.00 0.00 96 1016.5
20260506081649 13 181 0.0 0.0 0.00 0.00 0.00 96 1016.4
20260506081147 13 182 0.0 0.0 0.00 0.00 0.00 96 1016.5
20260506080644 13 182 0.0 0.0 0.00 0.00 0.00 95 1016.6
20260506080140 13 181 0.0 0.0 0.00 0.00 0.00 95 1016.7
20260506073125 14 181 0.0 0.0 0.00 0.00 0.00 94 1016.6
20260506072621 14 181 0.0 0.0 0.00 0.00 0.00 94 1016.7
20260506072119 14 182 0.0 0.0 0.00 0.00 0.00 94 1016.6
20260506071617 14 181 0.0 0.0 0.00 0.00 0.00 94 1016.6
20260506071114 14 181 0.0 0.0 0.00 0.00 0.00 94 1016.7
20260506070611 14 181 0.0 0.0 0.00 0.00 0.00 93 1016.4
20260506070108 14 181 0.0 0.0 0.00 0.00 0.00 93 1016.6
20260506062045 15 182 0.0 0.0 0.00 0.00 0.00 90 1016.6
20260506061541 15 182 0.0 0.0 0.00 0.00 0.00 90 1016.4
20260506061038 15 182 0.0 0.0 0.00 0.00 0.00 90 1016.4
20260506060537 15 182 0.0 0.0 0.00 0.00 0.00 90 1016.7
20260506051006 16 182 0.0 0.0 0.00 0.00 0.00 84 1017.3
20260506050503 16 178 0.0 0.0 0.00 0.00 0.00 84 1017.3
20260506044954 16 182 0.0 0.0 0.00 0.00 0.00 83 1017.2
20260506044452 17 182 0.0 0.0 0.00 0.00 0.00 82 1017.2
20260506043948 17 182 0.0 0.0 0.00 0.00 0.00 82 1017.2
20260506043445 17 182 0.0 0.0 0.00 0.00 0.00 82 1017.3
20260506042943 17 182 0.0 0.0 0.00 0.00 0.00 81 1017.2
20260506042443 17 182 0.0 0.0 0.00 0.00 0.00 81 1017.4
20260506041940 17 182 0.0 0.0 0.00 0.00 0.00 81 1017.7
20260506041438 17 182 0.0 0.0 0.00 0.00 0.00 80 1017.5
20260506040935 17 181 0.0 0.0 0.00 0.00 0.00 79 1017.2
20260506040432 18 176 0.0 0.0 0.00 0.00 0.00 79 1017.2
20260506035928 18 195 0.0 0.0 0.00 0.00 0.00 78 1017.1
20260506035426 18 217 0.0 0.0 0.00 0.00 0.00 78 1017.2
20260506034922 18 203 0.0 0.0 0.00 0.00 0.00 79 1017.4
20260506034420 18 203 0.0 0.0 0.00 0.00 0.00 78 1017.2
20260506033917 18 202 0.0 0.0 0.00 0.00 0.00 78 1017.5
20260506033414 18 217 0.0 0.0 0.00 0.00 0.00 77 1017.3
20260506032911 18 203 0.0 0.0 0.00 0.00 0.00 77 1017.3
20260506032408 18 185 0.0 0.0 0.00 0.00 0.00 77 1017.0
20260506031905 18 208 0.0 0.0 0.00 0.00 0.00 78 1017.3
20260506031402 18 202 0.0 0.0 0.00 0.00 0.00 77 1017.0
20260506030859 19 202 0.0 0.0 0.00 0.00 0.00 77 1017.2
20260506030357 19 196 0.0 0.0 0.00 0.00 0.00 77 1017.2
20260506025854 19 203 0.0 0.0 0.00 0.00 0.00 77 1017.0
20260506025350 19 197 0.0 0.0 0.00 0.00 0.00 77 1016.8
20260506024847 19 226 0.0 0.0 0.00 0.00 0.00 78 1017.0
20260506024344 19 222 0.0 0.0 0.00 0.00 0.00 77 1017.0
20260506023840 20 225 0.0 0.0 0.00 0.00 0.00 77 1016.8
20260506023337 20 224 0.0 0.0 0.00 0.00 0.00 76 1016.8
20260506022834 20 203 0.0 0.0 0.00 0.00 0.00 75 1016.9
20260506022332 20 210 0.0 0.0 0.00 0.00 0.00 75 1016.6
20260506021830 20 166 0.0 0.0 0.00 0.00 0.00 74 1016.7
20260506021326 20 244 0.0 0.0 0.00 0.00 0.00 75 1016.7
20260506020823 20 200 0.0 0.0 0.00 0.00 0.00 75 1016.7
20260506020321 20 149 0.0 0.0 0.00 0.00 0.00 75 1016.8
20260506015818 20 208 0.0 0.0 0.00 0.00 0.00 74 1016.7